Other Surface Observations
Issued by NWS

Home | Current Version | Previous Version | Text Only | Print | Product List | Glossary On
Versions: 1 2 3 4 5 6 7 8 9 10 11 12 13 14 15 16 17 18 19 20 21 22 23 24 25 26 27 28 29 30 31 32 33 34 35 36 37 38 39 40 41 42 43 44 45 46 47 48 49 50
000
SXUS52 KTAE 061719
OSOTAE
OSOTAE
North Florida/South Alabama/Southwest Georgia Weather Roundup
National Weather Service Tallahassee Florida
100 PM EDT MON JUL 06 2015

Note: "fair" indicates few or no clouds below 12,000 feet with no
significant weather and/or obstructions to visibility.

!FLZ017-115-028-034-025-061800
...North Florida...

CITY           SKY/WX    TMP DP  RH WIND       PRES   REMARKS
TALLAHASSEE    PTSUNNY   88  70  55 W8        30.17F HX  93
APALACHICOLA   PTSUNNY   89  69  51 SW8       30.19F HX  93
PERRY          MOSUNNY   88  70  55 W8        30.18F HX  92
CROSS CITY       N/A     91  70  49 MISG      30.17F HX  96
JACKSONVILLE   PTSUNNY   86  71  60 W10       30.17F HX  91
$$

!FLZ112-006-005-002-011-061800
...Florida Panhandle...

CITY           SKY/WX    TMP DP  RH WIND       PRES   REMARKS
MARIANNA       MOSUNNY   84  73  69 SW8       30.17F HX  90
BONIFAY        PTSUNNY   85  73  67 SW8       30.19F HX  91
PANAMA CITY NW FAIR      83  73  72 SW8       30.17F
TYNDALL AFB    CLOUDY    79  73  82 W7        30.19F
TYND DRONE APT LGT RAIN  79  75  89 SW3       30.19S
DE FUNIAK SPR  FAIR      84  67  57 W3        30.20S
EGLIN AFB      PTSUNNY   85  66  53 SW6       30.19S
DESTIN         PTSUNNY   85  69  58 VRB6      30.19S
HURLBURT       PTSUNNY   86  65  49 NW6       30.18S
CRESTVIEW      MOSUNNY   86  68  54 VRB5      30.20F
PENSACOLA      MOSUNNY   86  65  49 NW8       30.19S
$$

!ALZ063-066-061800
...South Alabama...

CITY           SKY/WX    TMP DP  RH WIND       PRES   REMARKS
DOTHAN         MOSUNNY   85  67  54 W8        30.22S
OZARK CAIRNS   NOT AVBL
FT RUCKER HELI MOSUNNY   85  67  54 VRB7      30.17F
RUCKER HELI 3  FAIR      83  68  60 W5G16     30.20F
RUCKER HELI 2  FAIR      83  68  60 W7        30.19F
FLORALA APT    SUNNY     85  66  53 VRB3      30.21F
ANDALUSIA      SUNNY     87  67  51 CALM      30.19F HX  90
TROY           SUNNY     84  68  58 VRB3      30.20S
EUFALA         PTSUNNY   82  72  69 NW6       30.18F
MOBILE         PTSUNNY   86  68  54 VRB5      30.20F
$$

!GAZ120>161-061800
...Southwest and South Central Georgia...

CITY           SKY/WX    TMP DP  RH WIND       PRES   REMARKS
THOMASVILLE    FAIR      82  70  65 W7        30.19F
BAINBRIDGE     PTSUNNY   86  73  66 SW9       30.19F HX  93
MOODY AFB      PTSUNNY   85  68  56 W12G20    30.17F
VALDOSTA       MOSUNNY   87  69  54 VRB3      30.18F HX  91
MOULTRIE       MOSUNNY   82  70  65 W8        30.19F
BLAKELY        MOSUNNY   84  70  61 W6        30.19F
ALBANY         PTSUNNY   84  68  58 W7        30.20F
TIFTON         CLOUDY    83  65  54 W10       30.18S
FITZGERALD     FAIR      85  67  56 NW5       30.20F
CORDELE        CLOUDY    82  71  67 W5        30.19F
AMERICUS       PTSUNNY   81  68  65 W6        30.20F
HOMERVILLE     FAIR      88  72  58 SW9       30.18F HX  94
$$

!GMZ750-755-770-775-061800
...Coastal and Buoy Obs...

STATION/POSITION TIME  TEMP    WIND        PRES    VSBY  WAVE
                       AIR SEA DIR/SP/G                  HT/PER
                 (UTC) (F)     (DEG/KT/KT) (MB)    (MI)  (FT/S)
KEATON BEACH     1700   84     290/  8/ 10 1022.2F
CEDAR KEY        1700   87     320/  5/  7 1022.4F
C TOWER          1700   82     320/  7/  8 1022.3F
APALACHICOLA BUO 1650   85 86  290/  8/ 10 1022.3R         2/ 5
PANAMA CITY BUOY 1650   84 86  300/  6/  6 1022.9S         2/10
MOBILE BUOY      1650   84 86  140/  2/  2 1022.4F         1/ 5
ORANGE BCH AL BU 1650   81 85  340/  4/  6 1021.6S         1/ 6
$$



USA.gov is the U.S. government's official web portal to all federal, state and local government web resources and services.